Content
SEND FEEDBACK

Daily
Averages
Monthly
Summary
United States of America

STATEN ISLAND, NEW YORK


Home > North America > United States > New York
Elevation: 46 meters     Latitude: 40 35N     Longitude: 074 09W

WEATHER
 
SELECT A DAY
Number of Records: 189,740;   Date Range: 1/1/95 - 8/12/14
 
SHARE

PRINT THIS DATA

[ ← Previous Day ]
WEATHER ALMANAC - 19 JUNE, 2013
[ Next Day → ]
[ °F ]   °C
Weather ElementAverageHighLow
Temperature20.3 °C25.6 °C (2:51 pm)15.6 °C (5:51 am)
Dewpoint11 °C16.7 °C (1:51 am)4.4 °C (4:51 pm)
Humidity59.2 %93 % (1:51 am)26 % (4:51 pm)
Barometer1016.6 hPa1021.7 hPa (11:51 pm)1012.2 hPa (1:51 am)
Wind Speed15.9 km/h24.1 km/h (6:51 am)
Wind Gust29.6 km/h (3:51 pm)
Weather ElementAverage
Visibility16.1 km
Wind DirectionSE (130.4 °)

Weather ElementTotal
Precipitation---
Cooling Degree Days2.3 (Base 18.3)
Growing Degree Days10.6 (Base 10)
Averaged from 25 records on 19 June, 2013
WEATHER CONDITIONS BREAKOUT
WIND DIRECTION BREAKOUT
WEATHER BY HOUR - 19 JUNE, 2013
[ °F ]   °C
Local TimeTemperatureDewpointHumidityBarometerVisibilityWind DirectionWind SpeedGust SpeedPrecipitationEventsConditions
1:51 AM17.8 °C16.7 °C93 %1012.2 hPa16.1 kmNorth (10°)20.4 km/hOvercast
2:51 AM17.8 °C16.1 °C90 %1012.5 hPa16.1 kmNorth (10°)20.4 km/hOvercast
3:51 AM17.2 °C15.6 °C90 %1012.9 hPa16.1 kmNorth (10°)18.5 km/hOvercast
4:05 AM17 °C15 °C88 %1012.9 hPa16.1 kmNorth (350°)18.5 km/hMostly Cloudy
4:51 AM16.1 °C13.9 °C87 %1013.2 hPa16.1 kmNorth (360°)13 km/hMostly Cloudy
5:06 AM16 °C13 °C82 %1013.5 hPa16.1 kmNorth (10°)18.5 km/hMostly Cloudy
5:51 AM15.6 °C12.8 °C83 %1013.9 hPa16.1 kmNorth (10°)14.8 km/hMostly Cloudy
6:51 AM16.1 °C12.2 °C78 %1014.2 hPa16.1 kmNorth (10°)24.1 km/hMostly Cloudy
7:51 AM17.8 °C11.7 °C67 %1015.9 hPa16.1 kmNNE (20°)18.5 km/hMostly Cloudy
8:51 AM17.8 °C11.1 °C65 %1016.6 hPa16.1 kmNNE (20°)22.2 km/hMostly Cloudy
9:51 AM19.4 °C11.7 °C61 %1017.3 hPa16.1 kmNorth (10°)18.5 km/hScattered Clouds
10:51 AM21.1 °C11.1 °C53 %1017.6 hPa16.1 kmNorth (10°)18.5 km/hScattered Clouds
11:51 AM22.8 °C8.9 °C41 %1017.6 hPa16.1 kmNNE (30°)18.5 km/hScattered Clouds
12:51 PM23.3 °C8.3 °C38 %1017.6 hPa16.1 kmNE (50°)13 km/hScattered Clouds
1:51 PM24.4 °C8.9 °C37 %1017.6 hPa16.1 kmNorth (360°)18.5 km/hScattered Clouds
2:51 PM25.6 °C8.3 °C33 %1017.9 hPa16.1 kmNorth (350°)14.8 km/hScattered Clouds
3:51 PM25 °C6.7 °C31 %1017.9 hPa16.1 kmNW (310°)11.1 km/h29.6 km/hScattered Clouds
4:51 PM25 °C4.4 °C26 %1017.6 hPa16.1 kmCalmScattered Clouds
5:51 PM25 °C6.7 °C31 %1017.6 hPa16.1 kmWNW (300°)13 km/hScattered Clouds
6:51 PM25 °C7.2 °C32 %1017.9 hPa16.1 kmWNW (300°)13 km/h27.8 km/hScattered Clouds
7:51 PM23.9 °C8.3 °C37 %1018.6 hPa16.1 kmVariable11.1 km/hScattered Clouds
8:51 PM22.2 °C11.7 °C51 %1019 hPa16.1 kmSSE (160°)11.1 km/hScattered Clouds
9:51 PM20 °C12.2 °C61 %1020 hPa16.1 kmSouth (180°)18.5 km/hPartly Cloudy
10:51 PM18.9 °C12.2 °C65 %1021 hPa16.1 kmSouth (190°)16.7 km/hPartly Cloudy
11:51 PM18.3 °C10.6 °C61 %1021.7 hPa16.1 kmSSW (200°)13 km/hPartly Cloudy
Hourly data recorded from KEWR, located 0 kilometers away from Staten Island, New York







STORIES FROM OUR PARTNERS